| time (UTC) | temp F | wind direction | speed MPH | gust MPH | rain 1hr in | rain 24hr in | rain mn in | humidity % | barometer mb |
| 20260507170059 | 56 | 0 | 5.0 | 9.0 | 0.00 | 0.06 | 0.02 | 54 | 1010.3 |
| 20260507165559 | 58 | 96 | 2.0 | 6.0 | 0.00 | 0.06 | 0.02 | 59 | 1010.3 |
| 20260507165101 | 58 | 134 | 1.0 | 7.0 | 0.00 | 0.06 | 0.02 | 53 | 1010.3 |
| 20260507164603 | 56 | 348 | 0.0 | 7.0 | 0.00 | 0.06 | 0.02 | 56 | 1010.4 |
| 20260507164100 | 56 | 92 | 2.0 | 8.0 | 0.00 | 0.06 | 0.02 | 65 | 1010.5 |
| 20260507163559 | 56 | 28 | 2.0 | 8.0 | 0.00 | 0.06 | 0.02 | 58 | 1010.5 |
| 20260507163059 | 55 | 107 | 3.0 | 8.0 | 0.00 | 0.06 | 0.02 | 61 | 1010.7 |
| 20260507162601 | 55 | 96 | 0.0 | 4.0 | 0.00 | 0.06 | 0.02 | 58 | 1010.8 |
| 20260507162104 | 55 | 317 | 1.0 | 5.0 | 0.00 | 0.06 | 0.02 | 61 | 1010.8 |
| 20260507161611 | 54 | 286 | 2.0 | 5.0 | 0.00 | 0.06 | 0.02 | 57 | 1010.8 |
| 20260507161101 | 54 | 76 | 1.0 | 5.0 | 0.00 | 0.06 | 0.02 | 60 | 1010.9 |
| 20260507160601 | 54 | 0 | 2.0 | 7.0 | 0.00 | 0.06 | 0.02 | 56 | 1011.1 |
| 20260507160116 | 54 | 347 | 1.0 | 7.0 | 0.00 | 0.06 | 0.02 | 64 | 1010.9 |
| 20260507155604 | 53 | 133 | 1.0 | 4.0 | 0.00 | 0.06 | 0.02 | 60 | 1011.1 |
| 20260507155100 | 53 | 32 | 1.0 | 4.0 | 0.00 | 0.06 | 0.02 | 62 | 1011.0 |
| 20260507154601 | 53 | 25 | 2.0 | 5.0 | 0.00 | 0.06 | 0.02 | 65 | 1011.2 |
| 20260507154101 | 52 | 24 | 2.0 | 5.0 | 0.00 | 0.06 | 0.02 | 62 | 1011.0 |
| 20260507153600 | 52 | 338 | 2.0 | 5.0 | 0.00 | 0.06 | 0.02 | 62 | 1011.2 |
| 20260507153114 | 52 | 13 | 2.0 | 5.0 | 0.00 | 0.06 | 0.02 | 64 | 1011.2 |
| 20260507152602 | 52 | 326 | 2.0 | 5.0 | 0.00 | 0.06 | 0.02 | 62 | 1011.3 |
| 20260507152059 | 52 | 49 | 2.0 | 4.0 | 0.00 | 0.06 | 0.02 | 64 | 1011.3 |
| 20260507151602 | 52 | 14 | 2.0 | 4.0 | 0.00 | 0.06 | 0.02 | 66 | 1011.4 |
| 20260507151101 | 52 | 327 | 1.0 | 3.0 | 0.00 | 0.06 | 0.02 | 62 | 1011.5 |
| 20260507150602 | 52 | 355 | 1.0 | 5.0 | 0.00 | 0.06 | 0.02 | 66 | 1011.5 |
| 20260507150110 | 52 | 5 | 1.0 | 5.0 | 0.00 | 0.06 | 0.02 | 64 | 1011.6 |
| 20260507145601 | 52 | 318 | 2.0 | 5.0 | 0.00 | 0.10 | 0.02 | 63 | 1011.5 |
| 20260507145104 | 52 | 360 | 1.0 | 4.0 | 0.00 | 0.10 | 0.02 | 71 | 1011.7 |
| 20260507144601 | 51 | 296 | 1.0 | 4.0 | 0.00 | 0.10 | 0.02 | 68 | 1011.7 |
| 20260507144101 | 51 | 0 | 1.0 | 4.0 | 0.00 | 0.10 | 0.02 | 67 | 1011.8 |
| 20260507143600 | 50 | 0 | 1.0 | 3.0 | 0.00 | 0.10 | 0.02 | 69 | 1011.8 |
| 20260507143102 | 50 | 0 | 1.0 | 3.0 | 0.00 | 0.10 | 0.02 | 68 | 1011.9 |
| 20260507142600 | 50 | 0 | 0.0 | 4.0 | 0.00 | 0.10 | 0.02 | 68 | 1011.8 |
| 20260507142102 | 50 | 35 | 1.0 | 4.0 | 0.00 | 0.10 | 0.02 | 67 | 1011.9 |
| 20260507141603 | 50 | 21 | 1.0 | 4.0 | 0.00 | 0.10 | 0.02 | 65 | 1011.7 |
| 20260507141101 | 49 | 44 | 0.0 | 3.0 | 0.00 | 0.10 | 0.02 | 71 | 1011.8 |
| 20260507140601 | 50 | 19 | 0.0 | 5.0 | 0.00 | 0.10 | 0.02 | 71 | 1012.0 |
| 20260507140100 | 49 | 336 | 1.0 | 5.0 | 0.00 | 0.10 | 0.02 | 66 | 1011.9 |
| 20260507135604 | 49 | 321 | 2.0 | 5.0 | 0.00 | 0.17 | 0.02 | 67 | 1012.0 |
| 20260507135104 | 49 | 24 | 2.0 | 4.0 | 0.00 | 0.17 | 0.02 | 67 | 1012.1 |
| 20260507134616 | 49 | 336 | 2.0 | 4.0 | 0.00 | 0.17 | 0.02 | 68 | 1012.2 |
| 20260507134101 | 49 | 344 | 2.0 | 5.0 | 0.00 | 0.17 | 0.02 | 68 | 1012.2 |
| 20260507133601 | 49 | 355 | 2.0 | 5.0 | 0.00 | 0.17 | 0.02 | 69 | 1012.2 |
| 20260507133100 | 49 | 321 | 1.0 | 3.0 | 0.00 | 0.17 | 0.02 | 71 | 1012.3 |
| 20260507132600 | 49 | 326 | 1.0 | 4.0 | 0.00 | 0.17 | 0.02 | 70 | 1012.3 |
| 20260507132100 | 49 | 314 | 1.0 | 4.0 | 0.00 | 0.17 | 0.02 | 69 | 1012.3 |
| 20260507131601 | 49 | 341 | 1.0 | 4.0 | 0.00 | 0.17 | 0.02 | 69 | 1012.2 |
| 20260507131102 | 49 | 24 | 1.0 | 5.0 | 0.00 | 0.17 | 0.02 | 72 | 1012.2 |
| 20260507130559 | 49 | 327 | 2.0 | 6.0 | 0.00 | 0.17 | 0.02 | 70 | 1012.1 |
| 20260507130110 | 49 | 329 | 2.0 | 6.0 | 0.00 | 0.17 | 0.02 | 71 | 1012.1 |
| 20260507125556 | 49 | 323 | 3.0 | 6.0 | 0.00 | 0.23 | 0.02 | 69 | 1012.1 |
| 20260507125057 | 49 | 334 | 3.0 | 5.0 | 0.00 | 0.23 | 0.02 | 69 | 1012.0 |
| 20260507124621 | 49 | 350 | 3.0 | 5.0 | 0.00 | 0.23 | 0.02 | 69 | 1012.0 |
| 20260507124057 | 49 | 347 | 2.0 | 4.0 | 0.00 | 0.23 | 0.02 | 71 | 1012.1 |
| 20260507123557 | 49 | 327 | 2.0 | 4.0 | 0.00 | 0.23 | 0.02 | 72 | 1012.1 |
| 20260507123109 | 49 | 326 | 1.0 | 3.0 | 0.00 | 0.23 | 0.02 | 73 | 1012.1 |
| 20260507122559 | 49 | 346 | 1.0 | 4.0 | 0.00 | 0.23 | 0.02 | 73 | 1012.2 |
| 20260507122100 | 49 | 327 | 1.0 | 4.0 | 0.00 | 0.23 | 0.02 | 72 | 1012.3 |
| 20260507121604 | 49 | 328 | 2.0 | 4.0 | 0.00 | 0.23 | 0.02 | 73 | 1012.1 |
| 20260507121059 | 49 | 318 | 2.0 | 4.0 | 0.00 | 0.23 | 0.02 | 74 | 1012.0 |
| 20260507120559 | 49 | 346 | 2.0 | 4.0 | 0.00 | 0.23 | 0.02 | 75 | 1012.1 |
| 20260507115600 | 49 | 343 | 2.0 | 6.0 | 0.00 | 0.27 | 0.02 | 75 | 1012.0 |
| 20260507115100 | 49 | 350 | 2.0 | 6.0 | 0.00 | 0.27 | 0.02 | 76 | 1012.0 |
| 20260507114605 | 49 | 340 | 2.0 | 8.0 | 0.00 | 0.27 | 0.02 | 77 | 1012.0 |
| 20260507114056 | 49 | 347 | 2.0 | 8.0 | 0.00 | 0.27 | 0.02 | 77 | 1011.9 |
| 20260507113601 | 50 | 28 | 2.0 | 8.0 | 0.00 | 0.27 | 0.02 | 78 | 1011.7 |
| 20260507113101 | 50 | 342 | 2.0 | 4.0 | 0.00 | 0.27 | 0.02 | 81 | 1011.7 |
| 20260507112556 | 50 | 341 | 2.0 | 4.0 | 0.00 | 0.27 | 0.02 | 80 | 1011.7 |
| 20260507112059 | 50 | 338 | 2.0 | 4.0 | 0.00 | 0.27 | 0.02 | 81 | 1011.6 |
| 20260507111558 | 50 | 13 | 1.0 | 4.0 | 0.00 | 0.27 | 0.02 | 82 | 1011.5 |
| 20260507111102 | 50 | 15 | 2.0 | 4.0 | 0.00 | 0.27 | 0.02 | 82 | 1011.6 |
| 20260507110556 | 50 | 351 | 2.0 | 4.0 | 0.00 | 0.27 | 0.02 | 80 | 1011.4 |
| 20260507110100 | 50 | 341 | 2.0 | 4.0 | 0.00 | 0.27 | 0.02 | 80 | 1011.6 |
| 20260507105600 | 50 | 319 | 2.0 | 4.0 | 0.00 | 0.27 | 0.02 | 79 | 1011.6 |
| 20260507105100 | 50 | 335 | 2.0 | 4.0 | 0.00 | 0.27 | 0.02 | 80 | 1011.5 |
| 20260507104600 | 50 | 340 | 1.0 | 3.0 | 0.00 | 0.27 | 0.02 | 80 | 1011.5 |
| 20260507104102 | 50 | 12 | 1.0 | 3.0 | 0.00 | 0.27 | 0.02 | 80 | 1011.4 |
| 20260507103600 | 50 | 339 | 1.0 | 4.0 | 0.00 | 0.27 | 0.02 | 80 | 1011.4 |
| 20260507103114 | 50 | 343 | 1.0 | 4.0 | 0.00 | 0.27 | 0.02 | 81 | 1011.3 |
| 20260507102559 | 50 | 23 | 2.0 | 4.0 | 0.00 | 0.27 | 0.02 | 80 | 1011.2 |
| 20260507102100 | 50 | 342 | 2.0 | 4.0 | 0.00 | 0.27 | 0.02 | 82 | 1011.3 |
| 20260507101601 | 50 | 346 | 2.0 | 4.0 | 0.00 | 0.27 | 0.02 | 81 | 1011.3 |
| 20260507101056 | 50 | 351 | 1.0 | 3.0 | 0.00 | 0.27 | 0.02 | 81 | 1011.2 |
| 20260507100559 | 50 | 342 | 1.0 | 3.0 | 0.00 | 0.27 | 0.02 | 80 | 1011.1 |
| 20260507100113 | 50 | 340 | 1.0 | 3.0 | 0.00 | 0.27 | 0.02 | 79 | 1011.0 |
| 20260507095603 | 50 | 350 | 2.0 | 3.0 | 0.00 | 0.27 | 0.02 | 79 | 1011.0 |
| 20260507095101 | 50 | 347 | 2.0 | 4.0 | 0.00 | 0.27 | 0.02 | 80 | 1010.9 |
| 20260507094559 | 50 | 345 | 2.0 | 5.0 | 0.00 | 0.27 | 0.02 | 79 | 1010.9 |
| 20260507094101 | 50 | 5 | 2.0 | 5.0 | 0.00 | 0.27 | 0.02 | 79 | 1010.8 |
| 20260507093603 | 50 | 338 | 3.0 | 5.0 | 0.00 | 0.27 | 0.02 | 78 | 1010.9 |
| 20260507093102 | 50 | 315 | 1.0 | 3.0 | 0.00 | 0.27 | 0.02 | 80 | 1011.0 |
| 20260507092601 | 50 | 338 | 2.0 | 3.0 | 0.00 | 0.27 | 0.02 | 80 | 1010.8 |
| 20260507092101 | 50 | 301 | 2.0 | 3.0 | 0.00 | 0.27 | 0.02 | 81 | 1010.8 |
| 20260507091600 | 50 | 329 | 1.0 | 5.0 | 0.00 | 0.27 | 0.02 | 84 | 1010.7 |
| 20260507091101 | 50 | 325 | 1.0 | 5.0 | 0.00 | 0.27 | 0.02 | 82 | 1010.6 |
| 20260507090600 | 50 | 342 | 2.0 | 5.0 | 0.00 | 0.27 | 0.02 | 81 | 1010.4 |
| 20260507090100 | 50 | 340 | 1.0 | 5.0 | 0.00 | 0.27 | 0.02 | 81 | 1010.6 |
| 20260507085600 | 50 | 5 | 1.0 | 5.0 | 0.00 | 0.27 | 0.02 | 80 | 1010.6 |
| 20260507085100 | 50 | 49 | 2.0 | 4.0 | 0.00 | 0.27 | 0.02 | 80 | 1010.6 |
| 20260507084602 | 50 | 351 | 1.0 | 4.0 | 0.00 | 0.27 | 0.02 | 81 | 1010.6 |
| 20260507084100 | 50 | 355 | 1.0 | 4.0 | 0.00 | 0.27 | 0.02 | 82 | 1010.8 |
| 20260507083600 | 50 | 342 | 2.0 | 4.0 | 0.00 | 0.27 | 0.02 | 81 | 1010.7 |
| 20260507083120 | 50 | 335 | 2.0 | 5.0 | 0.00 | 0.27 | 0.02 | 81 | 1010.6 |
| 20260507082602 | 50 | 345 | 2.0 | 5.0 | 0.00 | 0.27 | 0.02 | 81 | 1010.6 |
| 20260507082100 | 50 | 346 | 2.0 | 5.0 | 0.00 | 0.27 | 0.02 | 80 | 1010.7 |
| 20260507081605 | 50 | 334 | 2.0 | 7.0 | 0.00 | 0.27 | 0.02 | 81 | 1010.7 |
| 20260507081101 | 50 | 338 | 2.0 | 7.0 | 0.00 | 0.27 | 0.02 | 82 | 1010.5 |
| 20260507080600 | 50 | 320 | 3.0 | 8.0 | 0.00 | 0.27 | 0.02 | 81 | 1010.6 |
| 20260507075602 | 50 | 327 | 3.0 | 8.0 | 0.00 | 0.27 | 0.02 | 82 | 1010.4 |
| 20260507075101 | 50 | 332 | 3.0 | 6.0 | 0.00 | 0.27 | 0.02 | 82 | 1010.2 |
| 20260507074625 | 50 | 322 | 3.0 | 7.0 | 0.00 | 0.27 | 0.02 | 82 | 1010.0 |
| 20260507074102 | 50 | 342 | 4.0 | 7.0 | 0.00 | 0.27 | 0.02 | 82 | 1009.9 |
| 20260507073601 | 50 | 313 | 3.0 | 5.0 | 0.00 | 0.27 | 0.02 | 83 | 1009.9 |
| 20260507073103 | 50 | 313 | 2.0 | 4.0 | 0.00 | 0.27 | 0.02 | 84 | 1010.0 |
| 20260507072601 | 50 | 322 | 2.0 | 4.0 | 0.00 | 0.27 | 0.02 | 84 | 1010.1 |
| 20260507072101 | 50 | 318 | 2.0 | 5.0 | 0.00 | 0.27 | 0.02 | 84 | 1010.1 |
| 20260507071600 | 50 | 329 | 2.0 | 9.0 | 0.00 | 0.27 | 0.02 | 85 | 1010.0 |
| 20260507071101 | 50 | 313 | 4.0 | 9.0 | 0.00 | 0.27 | 0.02 | 85 | 1009.9 |
| 20260507070601 | 50 | 320 | 4.0 | 9.0 | 0.00 | 0.27 | 0.02 | 86 | 1010.1 |
| 20260507070106 | 50 | 324 | 4.0 | 9.0 | 0.00 | 0.27 | 0.02 | 86 | 1010.1 |
| 20260507065600 | 50 | 327 | 4.0 | 8.0 | 0.00 | 0.27 | 0.02 | 87 | 1010.0 |
| 20260507065100 | 50 | 338 | 4.0 | 8.0 | 0.00 | 0.27 | 0.02 | 87 | 1010.0 |
| 20260507064604 | 50 | 327 | 4.0 | 9.0 | 0.00 | 0.27 | 0.02 | 87 | 1010.1 |
| 20260507064101 | 50 | 309 | 4.0 | 9.0 | 0.00 | 0.27 | 0.02 | 88 | 1010.0 |
| 20260507063601 | 50 | 5 | 3.0 | 9.0 | 0.00 | 0.27 | 0.02 | 89 | 1010.1 |
| 20260507063059 | 50 | 324 | 4.0 | 8.0 | 0.00 | 0.27 | 0.02 | 88 | 1010.1 |
| 20260507062559 | 50 | 330 | 4.0 | 6.0 | 0.00 | 0.27 | 0.02 | 89 | 1010.2 |
| 20260507062056 | 50 | 320 | 3.0 | 6.0 | 0.00 | 0.27 | 0.02 | 89 | 1010.2 |
| 20260507061559 | 51 | 308 | 2.0 | 5.0 | 0.00 | 0.27 | 0.02 | 89 | 1010.3 |
| 20260507061056 | 51 | 305 | 3.0 | 5.0 | 0.01 | 0.27 | 0.02 | 89 | 1010.6 |
| 20260507060559 | 51 | 318 | 3.0 | 6.0 | 0.01 | 0.27 | 0.02 | 90 | 1010.4 |
| 20260507060059 | 51 | 317 | 3.0 | 6.0 | 0.01 | 0.27 | 0.02 | 90 | 1010.3 |
| 20260507055600 | 51 | 331 | 3.0 | 5.0 | 0.01 | 0.27 | 0.02 | 91 | 1010.1 |
| 20260507055056 | 50 | 323 | 3.0 | 5.0 | 0.01 | 0.27 | 0.02 | 91 | 1010.4 |
| 20260507054557 | 51 | 306 | 2.0 | 5.0 | 0.01 | 0.27 | 0.02 | 91 | 1010.3 |
| 20260507054100 | 51 | 321 | 2.0 | 5.0 | 0.01 | 0.27 | 0.02 | 91 | 1010.6 |
| 20260507053600 | 51 | 298 | 3.0 | 5.0 | 0.01 | 0.27 | 0.02 | 90 | 1010.3 |
| 20260507053100 | 51 | 324 | 3.0 | 6.0 | 0.01 | 0.27 | 0.02 | 91 | 1010.4 |
| 20260507052559 | 51 | 323 | 3.0 | 6.0 | 0.01 | 0.27 | 0.02 | 91 | 1010.4 |
| 20260507052058 | 52 | 300 | 4.0 | 6.0 | 0.01 | 0.27 | 0.02 | 90 | 1010.4 |
| 20260507051602 | 52 | 317 | 3.0 | 9.0 | 0.01 | 0.27 | 0.02 | 90 | 1010.4 |
| 20260507051059 | 52 | 316 | 4.0 | 9.0 | 0.00 | 0.26 | 0.01 | 91 | 1010.4 |
| 20260507050559 | 52 | 34 | 4.0 | 8.0 | 0.00 | 0.26 | 0.01 | 92 | 1010.5 |
| 20260507050059 | 53 | 342 | 3.0 | 6.0 | 0.01 | 0.26 | 0.01 | 93 | 1010.4 |
| 20260507045601 | 53 | 340 | 4.0 | 6.0 | 0.01 | 0.26 | 0.01 | 93 | 1010.1 |
| 20260507045056 | 53 | 17 | 1.0 | 4.0 | 0.01 | 0.26 | 0.01 | 93 | 1009.7 |
| 20260507044558 | 53 | 24 | 1.0 | 6.0 | 0.01 | 0.26 | 0.01 | 93 | 1010.0 |
| 20260507044059 | 53 | 343 | 2.0 | 6.0 | 0.01 | 0.26 | 0.01 | 93 | 1010.5 |
| 20260507043600 | 53 | 355 | 2.0 | 4.0 | 0.01 | 0.26 | 0.01 | 93 | 1010.6 |
| 20260507043102 | 54 | 349 | 2.0 | 4.0 | 0.01 | 0.26 | 0.01 | 93 | 1010.8 |
| 20260507042558 | 54 | 295 | 1.0 | 4.0 | 0.01 | 0.26 | 0.01 | 92 | 1010.4 |
| 20260507042100 | 54 | 111 | 1.0 | 4.0 | 0.01 | 0.26 | 0.01 | 91 | 1009.8 |
| 20260507041600 | 54 | 100 | 1.0 | 8.0 | 0.01 | 0.26 | 0.01 | 91 | 1010.1 |
| 20260507041100 | 55 | 336 | 3.0 | 8.0 | 0.01 | 0.26 | 0.01 | 90 | 1010.4 |
| 20260507040602 | 55 | 303 | 1.0 | 6.0 | 0.01 | 0.26 | 0.01 | 89 | 1011.0 |
| 20260507040059 | 55 | 328 | 3.0 | 6.0 | 0.00 | 0.25 | 0.00 | 88 | 1010.6 |
| 20260507035559 | 55 | 22 | 2.0 | 5.0 | 0.00 | 0.25 | 0.25 | 88 | 1010.1 |
| 20260507035102 | 55 | 315 | 2.0 | 4.0 | 0.00 | 0.25 | 0.25 | 89 | 1010.6 |
| 20260507034601 | 56 | 316 | 2.0 | 5.0 | 0.00 | 0.25 | 0.25 | 89 | 1010.0 |
| 20260507034059 | 56 | 329 | 0.0 | 5.0 | 0.00 | 0.25 | 0.25 | 88 | 1009.8 |
| 20260507033556 | 56 | 5 | 1.0 | 4.0 | 0.00 | 0.25 | 0.25 | 87 | 1009.7 |
| 20260507033058 | 56 | 276 | 2.0 | 5.0 | 0.00 | 0.25 | 0.25 | 88 | 1009.7 |
| 20260507032557 | 56 | 331 | 2.0 | 5.0 | 0.00 | 0.25 | 0.25 | 88 | 1009.7 |
| 20260507032056 | 56 | 352 | 3.0 | 5.0 | 0.00 | 0.25 | 0.25 | 89 | 1009.7 |
| 20260507031557 | 56 | 329 | 2.0 | 8.0 | 0.00 | 0.25 | 0.25 | 89 | 1009.7 |
| 20260507031101 | 56 | 322 | 4.0 | 9.0 | 0.00 | 0.25 | 0.25 | 88 | 1009.7 |
| 20260507030559 | 56 | 334 | 5.0 | 10.0 | 0.00 | 0.25 | 0.25 | 88 | 1009.6 |
| 20260507030100 | 56 | 316 | 5.0 | 10.0 | 0.00 | 0.25 | 0.25 | 88 | 1009.9 |
| 20260507025604 | 57 | 324 | 6.0 | 10.0 | 0.00 | 0.25 | 0.25 | 87 | 1010.0 |
| 20260507025101 | 57 | 317 | 4.0 | 10.0 | 0.00 | 0.25 | 0.25 | 87 | 1009.6 |
| 20260507024625 | 57 | 315 | 4.0 | 10.0 | 0.00 | 0.25 | 0.25 | 86 | 1009.4 |
| 20260507024100 | 57 | 312 | 4.0 | 8.0 | 0.00 | 0.25 | 0.25 | 86 | 1009.2 |
| 20260507023604 | 57 | 328 | 4.0 | 8.0 | 0.00 | 0.25 | 0.25 | 86 | 1009.0 |
| 20260507023058 | 57 | 328 | 4.0 | 12.0 | 0.00 | 0.25 | 0.25 | 86 | 1009.0 |
| 20260507022600 | 58 | 340 | 5.0 | 12.0 | 0.00 | 0.25 | 0.25 | 87 | 1009.2 |
| 20260507022100 | 58 | 312 | 5.0 | 9.0 | 0.00 | 0.25 | 0.25 | 87 | 1009.4 |
| 20260507021558 | 58 | 327 | 4.0 | 8.0 | 0.00 | 0.25 | 0.25 | 88 | 1009.2 |
| 20260507021059 | 58 | 317 | 4.0 | 10.0 | 0.00 | 0.25 | 0.25 | 89 | 1009.3 |
| 20260507020601 | 58 | 319 | 5.0 | 10.0 | 0.00 | 0.25 | 0.25 | 89 | 1009.2 |
| 20260507020111 | 58 | 307 | 4.0 | 7.0 | 0.00 | 0.25 | 0.25 | 90 | 1009.1 |
| 20260507015559 | 59 | 286 | 4.0 | 7.0 | 0.00 | 0.25 | 0.25 | 90 | 1009.1 |
| 20260507015059 | 59 | 315 | 4.0 | 7.0 | 0.00 | 0.25 | 0.25 | 91 | 1008.9 |
| 20260507014607 | 59 | 321 | 4.0 | 7.0 | 0.00 | 0.25 | 0.25 | 91 | 1009.2 |
| 20260507014059 | 59 | 309 | 3.0 | 7.0 | 0.00 | 0.25 | 0.25 | 91 | 1009.1 |
| 20260507013556 | 59 | 290 | 2.0 | 4.0 | 0.00 | 0.25 | 0.25 | 91 | 1009.1 |
| 20260507013059 | 59 | 350 | 1.0 | 4.0 | 0.00 | 0.25 | 0.25 | 91 | 1009.0 |
| 20260507012600 | 60 | 340 | 2.0 | 6.0 | 0.00 | 0.25 | 0.25 | 92 | 1008.9 |
| 20260507012100 | 60 | 323 | 2.0 | 8.0 | 0.00 | 0.25 | 0.25 | 92 | 1008.9 |
| 20260507011603 | 60 | 323 | 4.0 | 8.0 | 0.00 | 0.25 | 0.25 | 92 | 1009.2 |
| 20260507011059 | 60 | 328 | 5.0 | 8.0 | 0.00 | 0.25 | 0.25 | 92 | 1009.5 |
| 20260507010600 | 60 | 311 | 3.0 | 8.0 | 0.00 | 0.25 | 0.25 | 93 | 1009.5 |
| 20260507010058 | 60 | 301 | 3.0 | 5.0 | 0.00 | 0.25 | 0.25 | 93 | 1009.5 |
| 20260507005600 | 60 | 320 | 3.0 | 5.0 | 0.00 | 0.25 | 0.25 | 93 | 1009.4 |
| 20260507005059 | 61 | 311 | 2.0 | 5.0 | 0.00 | 0.25 | 0.25 | 94 | 1009.3 |
| 20260507004557 | 61 | 305 | 3.0 | 5.0 | 0.00 | 0.25 | 0.25 | 94 | 1009.1 |
| 20260507004101 | 61 | 319 | 3.0 | 5.0 | 0.01 | 0.25 | 0.25 | 94 | 1009.2 |
| 20260507003600 | 61 | 304 | 2.0 | 4.0 | 0.01 | 0.25 | 0.25 | 94 | 1009.1 |
| 20260507003059 | 62 | 315 | 1.0 | 3.0 | 0.02 | 0.25 | 0.25 | 95 | 1008.9 |
| 20260507002556 | 62 | 277 | 0.0 | 5.0 | 0.02 | 0.25 | 0.25 | 94 | 1009.2 |
| 20260507002102 | 62 | 0 | 2.0 | 6.0 | 0.02 | 0.25 | 0.25 | 94 | 1009.3 |
| 20260507001558 | 62 | 311 | 2.0 | 6.0 | 0.03 | 0.25 | 0.25 | 94 | 1009.1 |
| 20260507001151 | 62 | 313 | 2.0 | 5.0 | 0.04 | 0.25 | 0.25 | 94 | 1009.0 |
| 20260507000601 | 62 | 278 | 2.0 | 4.0 | 0.04 | 0.25 | 0.25 | 94 | 1008.9 |
| 20260506235601 | 62 | 279 | 1.0 | 4.0 | 0.04 | 0.25 | 0.25 | 93 | 1008.6 |
| 20260506235100 | 62 | 262 | 2.0 | 4.0 | 0.04 | 0.25 | 0.25 | 94 | 1008.7 |
| 20260506234612 | 62 | 279 | 1.0 | 5.0 | 0.03 | 0.24 | 0.24 | 93 | 1008.5 |
| 20260506234101 | 62 | 229 | 1.0 | 5.0 | 0.03 | 0.24 | 0.24 | 93 | 1008.4 |
| 20260506233605 | 62 | 300 | 3.0 | 5.0 | 0.03 | 0.24 | 0.24 | 93 | 1008.6 |
| 20260506233102 | 62 | 304 | 2.0 | 5.0 | 0.02 | 0.23 | 0.23 | 93 | 1008.6 |
| 20260506232601 | 62 | 284 | 1.0 | 3.0 | 0.02 | 0.23 | 0.23 | 92 | 1008.4 |
| 20260506232102 | 63 | 287 | 1.0 | 2.0 | 0.02 | 0.23 | 0.23 | 91 | 1008.3 |
| 20260506231601 | 63 | 267 | 0.0 | 2.0 | 0.01 | 0.22 | 0.22 | 91 | 1008.1 |
| 20260506231104 | 64 | 267 | 0.0 | 2.0 | 0.00 | 0.21 | 0.21 | 90 | 1008.2 |
| 20260506230601 | 64 | 0 | 0.0 | 3.0 | 0.00 | 0.21 | 0.21 | 88 | 1008.0 |
| 20260506225604 | 65 | 0 | 0.0 | 5.0 | 0.00 | 0.21 | 0.21 | 86 | 1007.8 |
| 20260506225104 | 65 | 185 | 1.0 | 5.0 | 0.00 | 0.21 | 0.21 | 86 | 1007.9 |
| 20260506224600 | 65 | 215 | 1.0 | 8.0 | 0.00 | 0.21 | 0.21 | 86 | 1007.9 |
| 20260506224100 | 65 | 202 | 2.0 | 8.0 | 0.00 | 0.21 | 0.21 | 85 | 1007.8 |
| 20260506223600 | 65 | 136 | 2.0 | 9.0 | 0.00 | 0.21 | 0.21 | 85 | 1007.9 |
| 20260506223100 | 65 | 178 | 4.0 | 9.0 | 0.00 | 0.21 | 0.21 | 84 | 1007.8 |
| 20260506222603 | 65 | 220 | 2.0 | 7.0 | 0.00 | 0.21 | 0.21 | 84 | 1007.7 |
| 20260506222101 | 65 | 169 | 1.0 | 5.0 | 0.00 | 0.21 | 0.21 | 84 | 1007.7 |
| 20260506221603 | 65 | 79 | 1.0 | 7.0 | 0.00 | 0.21 | 0.21 | 85 | 1007.8 |
| 20260506221101 | 65 | 155 | 3.0 | 7.0 | 0.00 | 0.21 | 0.21 | 85 | 1007.8 |
| 20260506220601 | 66 | 111 | 2.0 | 6.0 | 0.00 | 0.21 | 0.21 | 85 | 1007.7 |
| 20260506220059 | 66 | 175 | 1.0 | 5.0 | 0.00 | 0.21 | 0.21 | 84 | 1007.8 |
| 20260506215603 | 66 | 187 | 1.0 | 6.0 | 0.00 | 0.21 | 0.21 | 84 | 1007.7 |
| 20260506215101 | 65 | 172 | 2.0 | 6.0 | 0.00 | 0.21 | 0.21 | 84 | 1007.7 |
| 20260506214600 | 65 | 150 | 2.0 | 7.0 | 0.00 | 0.21 | 0.21 | 84 | 1007.7 |
| 20260506214101 | 65 | 171 | 2.0 | 7.0 | 0.00 | 0.21 | 0.21 | 85 | 1007.7 |
| 20260506213605 | 65 | 151 | 1.0 | 8.0 | 0.00 | 0.21 | 0.21 | 85 | 1007.7 |
| 20260506213145 | 65 | 114 | 2.0 | 8.0 | 0.00 | 0.21 | 0.21 | 85 | 1007.7 |
| 20260506212601 | 65 | 166 | 2.0 | 11.0 | 0.00 | 0.21 | 0.21 | 84 | 1007.7 |
| 20260506212101 | 65 | 182 | 3.0 | 11.0 | 0.00 | 0.21 | 0.21 | 85 | 1007.6 |
| 20260506211632 | 65 | 123 | 3.0 | 9.0 | 0.00 | 0.21 | 0.21 | 84 | 1007.6 |
| 20260506211101 | 65 | 149 | 2.0 | 10.0 | 0.00 | 0.21 | 0.21 | 86 | 1007.5 |
| 20260506210557 | 65 | 161 | 1.0 | 10.0 | 0.00 | 0.21 | 0.21 | 84 | 1007.4 |
| 20260506205556 | 65 | 128 | 2.0 | 7.0 | 0.00 | 0.21 | 0.21 | 84 | 1007.4 |
| 20260506205059 | 65 | 163 | 3.0 | 8.0 | 0.00 | 0.21 | 0.21 | 84 | 1007.4 |
| 20260506204559 | 66 | 252 | 3.0 | 8.0 | 0.00 | 0.21 | 0.21 | 83 | 1007.4 |
| 20260506204056 | 66 | 157 | 2.0 | 9.0 | 0.00 | 0.21 | 0.21 | 83 | 1007.2 |
| 20260506203600 | 66 | 169 | 1.0 | 9.0 | 0.00 | 0.21 | 0.21 | 84 | 1007.1 |
| 20260506203105 | 66 | 230 | 3.0 | 15.0 | 0.00 | 0.21 | 0.21 | 84 | 1007.0 |
| 20260506202604 | 66 | 224 | 4.0 | 15.0 | 0.00 | 0.21 | 0.21 | 84 | 1007.0 |
| 20260506202104 | 65 | 182 | 4.0 | 11.0 | 0.00 | 0.21 | 0.21 | 84 | 1007.0 |
| 20260506201610 | 64 | 101 | 5.0 | 14.0 | 0.00 | 0.21 | 0.21 | 84 | 1007.1 |
| 20260506201101 | 65 | 314 | 3.0 | 14.0 | 0.00 | 0.21 | 0.21 | 86 | 1007.3 |
| 20260506200556 | 65 | 138 | 4.0 | 10.0 | 0.00 | 0.21 | 0.21 | 85 | 1007.3 |
| 20260506195602 | 64 | 0 | 3.0 | 11.0 | 0.00 | 0.21 | 0.21 | 86 | 1007.4 |
| 20260506195103 | 64 | 273 | 4.0 | 11.0 | 0.00 | 0.21 | 0.21 | 85 | 1007.5 |
| 20260506194623 | 65 | 232 | 2.0 | 9.0 | 0.00 | 0.21 | 0.21 | 85 | 1007.5 |
| 20260506194059 | 64 | 196 | 2.0 | 9.0 | 0.00 | 0.21 | 0.21 | 85 | 1007.4 |
| 20260506193601 | 64 | 176 | 3.0 | 9.0 | 0.00 | 0.21 | 0.21 | 86 | 1007.5 |
| 20260506193103 | 64 | 196 | 3.0 | 12.0 | 0.00 | 0.21 | 0.21 | 87 | 1007.4 |
| 20260506192556 | 64 | 173 | 2.0 | 12.0 | 0.00 | 0.21 | 0.21 | 86 | 1007.5 |
| 20260506192056 | 64 | 159 | 3.0 | 11.0 | 0.00 | 0.21 | 0.21 | 88 | 1007.6 |
| 20260506191605 | 64 | 109 | 3.0 | 9.0 | 0.00 | 0.21 | 0.21 | 86 | 1007.5 |
| 20260506191100 | 64 | 186 | 3.0 | 9.0 | 0.00 | 0.21 | 0.21 | 86 | 1007.6 |
| 20260506190600 | 64 | 111 | 3.0 | 11.0 | 0.00 | 0.21 | 0.21 | 86 | 1007.7 |
| 20260506190059 | 64 | 138 | 3.0 | 11.0 | 0.00 | 0.21 | 0.21 | 87 | 1007.7 |
| 20260506185600 | 63 | 156 | 2.0 | 14.0 | 0.00 | 0.21 | 0.21 | 87 | 1007.9 |
| 20260506185102 | 63 | 88 | 4.0 | 14.0 | 0.00 | 0.21 | 0.21 | 86 | 1007.9 |
| 20260506184609 | 63 | 200 | 4.0 | 10.0 | 0.00 | 0.21 | 0.21 | 87 | 1007.9 |
| 20260506184101 | 63 | 112 | 3.0 | 11.0 | 0.00 | 0.21 | 0.21 | 88 | 1007.9 |
| 20260506183600 | 63 | 102 | 4.0 | 11.0 | 0.00 | 0.21 | 0.21 | 88 | 1008.1 |
| 20260506183104 | 62 | 154 | 2.0 | 7.0 | 0.00 | 0.21 | 0.21 | 88 | 1008.0 |
| 20260506182559 | 62 | 171 | 1.0 | 10.0 | 0.00 | 0.21 | 0.21 | 89 | 1008.1 |
| 20260506182059 | 62 | 238 | 4.0 | 10.0 | 0.00 | 0.21 | 0.21 | 88 | 1008.1 |
| 20260506181559 | 62 | 160 | 3.0 | 10.0 | 0.00 | 0.21 | 0.21 | 89 | 1008.0 |
| 20260506181101 | 61 | 229 | 5.0 | 11.0 | 0.00 | 0.21 | 0.21 | 89 | 1008.1 |
| 20260506180601 | 61 | 162 | 2.0 | 11.0 | 0.00 | 0.21 | 0.21 | 89 | 1008.3 |
| 20260506175600 | 61 | 159 | 3.0 | 13.0 | 0.00 | 0.21 | 0.21 | 89 | 1008.2 |
| 20260506175057 | 61 | 157 | 2.0 | 14.0 | 0.00 | 0.21 | 0.21 | 89 | 1008.4 |
| 20260506174600 | 61 | 137 | 2.0 | 14.0 | 0.00 | 0.21 | 0.21 | 90 | 1008.2 |
| 20260506174059 | 61 | 139 | 4.0 | 14.0 | 0.00 | 0.21 | 0.21 | 89 | 1008.2 |
| 20260506173557 | 61 | 207 | 4.0 | 11.0 | 0.00 | 0.21 | 0.21 | 89 | 1008.2 |
| 20260506173108 | 61 | 110 | 5.0 | 14.0 | 0.00 | 0.21 | 0.21 | 89 | 1008.3 |
| 20260506172603 | 61 | 148 | 5.0 | 14.0 | 0.00 | 0.21 | 0.21 | 90 | 1008.5 |
| 20260506172101 | 61 | 178 | 3.0 | 10.0 | 0.00 | 0.21 | 0.21 | 90 | 1008.3 |
| 20260506171600 | 60 | 188 | 2.0 | 10.0 | 0.00 | 0.21 | 0.21 | 91 | 1008.5 |
| 20260506171105 | 60 | 257 | 2.0 | 16.0 | 0.00 | 0.21 | 0.21 | 91 | 1008.5 |
| 20260506170600 | 60 | 74 | 5.0 | 16.0 | 0.00 | 0.21 | 0.21 | 90 | 1008.6 |
| 20260506170115 | 60 | 159 | 6.0 | 13.0 | 0.00 | 0.21 | 0.21 | 90 | 1008.5 |